Regional Weather Roundup
Issued by NWS Jackson, KY

Home | Current Version | Previous Version | Text Only | Print | Product List | Glossary Off
Versions: 1 2 3 4 5 6 7 8 9 10 11 12 13 14 15 16 17 18 19 20 21 22 23 24 25 26 27 28 29 30 31 32 33 34 35 36 37 38 39 40 41 42 43 44 45 46 47 48 49 50

000
ASUS43 KJKL 021010
RWRJKL

EAST KENTUCKY HOURLY WEATHER ROUNDUP
NATIONAL WEATHER SERVICE JACKSON KY
600 AM EDT SAT MAY 02 2015

NOTE: "FAIR" INDICATES FEW OR NO CLOUDS BELOW 12,000 FEET WITH
NO SIGNIFICANT WEATHER AND/OR OBSTRUCTIONS TO VISIBILITY.

* THESE REPORTS ARE NOT UNDER NWS QUALITY CONTROL AND MAY NOT
  REPORT WEATHER SUCH AS PRECIPITATION AND FOG.

KYZ079-080-083-085-087-088-110-112-115-119-120-021100
...EASTERN KENTUCKY...

CITY           SKY/WX    TMP DP  RH WIND       PRES   REMARKS
JACKSON        CLEAR     48  44  86 CALM      30.11R
LONDON         MOCLDY    46  40  79 CALM      30.12R HAZE
SOMERSET*      CLOUDY    45  45 100 CALM      30.13S
MONTICELLO*    PTCLDY    42  42 100 CALM      30.16R FOG
MIDDLESBORO*   FOG       41  41 100 CALM      30.15R VSB 1/4
HARLAN APT*    CLOUDY    43  43 100 CALM      30.14R VSB<1/4
HAZARD APT*    SUNNY     43  43 100 CALM      30.11R FOG
BLACK MTN*       N/A     45  43  93 W3          N/A
PIKEVILLE APT* CLEAR     46  45  93 SW3       30.10R
BIG SANDY*     SUNNY     47  46  95 SW3       30.10R
MOREHEAD APT*  MOSUNNY   46  45  93 CALM      30.12R FOG
$$

KYZ035-036-041-042-044-050-067-078-099-021100
...CENTRAL KENTUCKY...

CITY           SKY/WX    TMP DP  RH WIND       PRES   REMARKS
MT STERLING*   CLEAR     43  43 100 SW3       30.12R FOG
FLEMING/MASON* CLEAR     45  43  93 W3        30.12R
DANVILLE*      PTCLDY    45  45 100 CALM      30.12R
RICHMOND*      PTCLDY    50  43  76 CALM      30.10S
LEXINGTON      CLEAR     46  43  89 SW3       30.10R
FRANKFORT      PTCLDY    44  41  89 CALM      30.10R
$$

KYZ091>093-OHZ055-061-077-WVZ005-015-034-035-042-021100
...SOUTHERN OHIO/WEST VIRGINIA...

CITY           SKY/WX    TMP DP  RH WIND       PRES   REMARKS
COVINGTON      MOCLDY    51  41  68 NW3       30.10R
COLUMBUS       CLOUDY    43  40  89 CALM      30.09R
DAYTON         CLOUDY    51  41  68 NW3       30.11R
WILMINGTON     MOCLDY    46  41  82 CALM      30.09S
HUNTINGTON     PTCLDY    43  43 100 CALM      30.08S FOG
CHARLESTON     PTCLDY    43  42  97 SW5       30.08R
PINEVILLE*     FOG       42  42 100 MISG      30.15R VSB 1/4
BECKLEY        CLEAR     41  39  93 SW3       30.08R FOG
BLUEFIELD      CLEAR     43  40  89 W8        30.09R
$$

VAZ002-007-008-TNZ017-027-036-066-071-021100
...SOUTHWEST VIRGINIA/EAST TENNESSEE...

CITY           SKY/WX    TMP DP  RH WIND       PRES   REMARKS
WISE*          CLEAR     45  43  93 W6        30.12R
JONESVILLE*    PTSUNNY   36  36 100 CALM      30.15R
ABINGDON*      PTCLDY    40  40  99 CALM      30.11S FOG
BRISTOL        FOG       39  39 100 CALM      30.13R VSB 1/4
KNOXVILLE      CLEAR     44  42  93 CALM      30.13R
OAK RIDGE      CLOUDY    43  41  93 CALM      30.14S FOG
CROSSVILLE     CLEAR     42  39  89 CALM      30.14S FOG
NASHVILLE      PTCLDY    48  46  93 CALM      30.13R
$$

...KEY TO REMARKS...
VSB - VISIBILITY IN MILES
WCI - WIND CHILL INDEX
HX  - HEAT INDEX

$$



USA.gov is the U.S. government's official web portal to all federal, state and local government web resources and services.